QPF
0.10 0.06 0.03 0.02 0.03 0.03 0.05 0.06 0.06 0.12 0.14 0.09 0.08 0.11 0.11 0.08 0.06 0.04 0.03 0.02 0.02 0.02 0.02 0.03 0.03 0.02 0.02 0.03 0.05 0.03 0.03 0.04 0.03 0.03 0.03 0.03 0.03 0.02 0.02 0.02 0.02 0.03 0.03
0.07 0.04 0.02 0.03 0.03 0.03 0.03 0.03 0.03 0.05 0.06 0.05 0.05 0.07 0.07 0.06 0.04 0.03 0.03 0.02 0.02 0.02 0.02 0.03 0.04 0.03 0.03 0.03 0.03 0.03 0.03 0.02 0.02 0.02 0.03 0.02 0.02 0.02 0.01 0.01 0.02 0.02 0.02
0.07 0.04 0.03 0.03 0.02 0.01 0.01 0.02 0.03 0.04 0.04 0.05 0.06 0.07 0.07 0.05 0.03 0.03 0.03 0.02 0.01 0.01 0.02 0.03 0.03 0.03 0.04 0.04 0.04 0.04 0.03 0.02 0.02 0.01 0.01 0.02 0.03 0.02 0.01 0.01 0.01 0.02 0.02
0.09 0.05 0.04 0.04 0.05 0.05 0.05 0.04 0.04 0.04 0.04 0.05 0.07 0.08 0.07 0.05 0.03 0.03 0.02 0.01 0.01 0.02 0.03 0.03 0.04 0.04 0.04 0.04 0.04 0.04 0.04 0.03 0.03 0.03 0.02 0.02 0.03 0.03 0.02 0.02 0.02 0.02 0.02
0.11 0.06 0.05 0.06 0.09 0.10 0.09 0.07 0.06 0.06 0.06 0.07 0.06 0.05 0.05 0.04 0.03 0.03 0.02 0.01 0.01 0.02 0.03 0.05 0.04 0.04 0.03 0.02 0.03 0.03 0.04 0.02 0.02 0.03 0.04 0.04 0.04 0.04 0.02 0.01 0.02 0.01 0.01
0.04 0.04 0.05 0.08 0.11 0.09 0.07 0.05 0.06 0.07 0.11 0.11 0.07 0.05 0.04 0.03 0.03 0.02 0.02 0.02 0.03 0.02 0.03 0.05 0.08 0.07 0.05 0.04 0.03 0.03 0.03 0.02 0.02 0.02 0.03 0.03 0.02 0.03 0.03 0.02 0.01 0.01 0.01
0.05 0.04 0.06 0.07 0.07 0.06 0.06 0.05 0.05 0.06 0.07 0.07 0.06 0.05 0.04 0.04 0.04 0.03 0.02 0.03 0.03 0.03 0.03 0.04 0.04 0.06 0.07 0.06 0.03 0.02 0.02 0.02 0.02 0.02 0.02 0.03 0.02 0.02 0.02 0.02 0.01 0.01 0.02
0.08 0.09 0.10 0.11 0.13 0.14 0.09 0.05 0.04 0.04 0.04 0.04 0.04 0.04 0.04 0.03 0.03 0.02 0.02 0.03 0.04 0.05 0.07 0.07 0.05 0.04 0.03 0.03 0.02 0.02 0.02 0.02 0.01 0.01 0.02 0.02 0.02 0.02 0.02 0.02 0.02 0.01 0.02
0.07 0.07 0.07 0.07 0.09 0.14 0.15 0.08 0.05 0.03 0.03 0.03 0.03 0.03 0.02 0.02 0.02 0.02 0.01 0.02 0.02 0.03 0.05 0.07 0.08 0.05 0.03 0.02 0.01 0.01 0.02 0.01 0.01 0.01 0.02 0.02 0.02 0.02 0.02 0.03 0.03 0.02 0.02
0.07 0.07 0.07 0.06 0.05 0.05 0.10 0.09 0.06 0.04 0.02 0.03 0.03 0.02 0.01 0.01 0.01 0.01 0.01 0.01 0.01 0.01 0.01 0.02 0.04 0.04 0.04 0.02 0.01 0.01 0.01 0.01 0.01 0.02 0.02 0.02 0.02 0.02 0.03 0.03 0.03 0.04 0.03
0.07 0.06 0.06 0.07 0.06 0.05 0.05 0.06 0.07 0.07 0.05 0.05 0.05 0.04 0.02 0.01 0.01 0.01 0.01 0.00 0.00 0.01 0.01 0.01 0.01 0.01 0.01 0.01 0.01 0.01 0.01 0.01 0.02 0.02 0.02 0.02 0.02 0.03 0.03 0.02 0.03 0.04 0.04
0.07 0.06 0.06 0.07 0.07 0.07 0.07 0.07 0.05 0.03 0.03 0.04 0.04 0.03 0.02 0.01 0.01 0.00 0.00 0.00 0.01 0.01 0.01 0.01 0.01 0.01 0.01 0.00 0.00 0.01 0.01 0.01 0.02 0.02 0.02 0.02 0.02 0.02 0.02 0.02 0.02 0.03 0.03
0.07 0.06 0.05 0.05 0.06 0.06 0.05 0.04 0.03 0.03 0.03 0.03 0.03 0.02 0.02 0.01 0.00 0.01 0.00 0.00 0.00 0.01 0.01 0.01 0.01 0.01 0.00 0.00 0.01 0.01 0.01 0.01 0.01 0.01 0.01 0.02 0.02 0.02 0.01 0.01 0.01 0.01 0.02
0.07 0.05 0.04 0.05 0.05 0.04 0.04 0.03 0.03 0.03 0.02 0.02 0.02 0.02 0.01 0.01 0.01 0.00 0.00 0.00 0.00 0.00 0.00 0.00 0.00 0.00 0.00 0.00 0.01 0.01 0.01 0.01 0.01 0.01 0.01 0.02 0.02 0.01 0.01 0.01 0.01 0.01 0.02
0.11 0.07 0.04 0.04 0.04 0.03 0.04 0.04 0.04 0.05 0.04 0.03 0.02 0.01 0.01 0.01 0.01 0.01 0.01 0.00 0.00 0.00 0.00 0.00 0.00 0.00 0.00 0.00 0.01 0.02 0.01 0.01 0.01 0.01 0.01 0.01 0.01 0.01 0.01 0.01 0.01 0.01 0.01
0.13 0.12 0.07 0.05 0.06 0.08 0.08 0.07 0.06 0.05 0.05 0.04 0.03 0.02 0.01 0.01 0.01 0.01 0.01 0.00 0.01 0.01 0.00 0.01 0.01 0.01 0.01 0.01 0.01 0.02 0.02 0.01 0.01 0.01 0.01 0.01 0.01 0.01 0.01 0.01 0.01 0.01 0.01
0.16 0.17 0.14 0.10 0.10 0.12 0.13 0.12 0.11 0.07 0.06 0.05 0.04 0.04 0.03 0.02 0.01 0.01 0.01 0.01 0.01 0.01 0.01 0.01 0.01 0.02 0.02 0.01 0.01 0.02 0.01 0.01 0.01 0.01 0.01 0.01 0.01 0.01 0.01 0.01 0.01 0.01 0.01
0.12 0.13 0.12 0.12 0.11 0.09 0.07 0.06 0.06 0.05 0.04 0.04 0.04 0.04 0.04 0.03 0.02 0.02 0.02 0.02 0.01 0.01 0.02 0.02 0.02 0.01 0.01 0.01 0.01 0.02 0.01 0.02 0.01 0.01 0.01 0.01 0.01 0.01 0.01 0.01 0.01 0.01 0.01
0.08 0.09 0.08 0.09 0.08 0.06 0.05 0.04 0.02 0.01 0.02 0.02 0.02 0.03 0.03 0.02 0.01 0.01 0.01 0.01 0.02 0.02 0.02 0.02 0.01 0.01 0.01 0.01 0.01 0.01 0.01 0.01 0.01 0.01 0.01 0.02 0.01 0.02 0.02 0.01 0.01 0.01 0.01
0.07 0.07 0.07 0.07 0.07 0.06 0.05 0.04 0.03 0.02 0.01 0.01 0.01 0.01 0.01 0.01 0.01 0.01 0.01 0.01 0.01 0.01 0.01 0.01 0.01 0.01 0.01 0.01 0.00 0.00 0.00 0.00 0.01 0.01 0.01 0.02 0.02 0.02 0.03 0.02 0.02 0.02 0.03
0.06 0.05 0.06 0.07 0.07 0.06 0.04 0.04 0.04 0.03 0.03 0.02 0.02 0.01 0.01 0.01 0.01 0.01 0.01 0.01 0.01 0.01 0.00 0.00 0.00 0.00 0.01 0.00 0.00 0.00 0.00 0.00 0.00 0.01 0.01 0.02 0.02 0.02 0.02 0.03 0.03 0.03 0.02
0.04 0.05 0.04 0.04 0.04 0.03 0.03 0.02 0.02 0.02 0.02 0.02 0.03 0.03 0.03 0.01 0.01 0.01 0.01 0.01 0.01 0.01 0.00 0.00 0.00 0.00 0.00 0.00 0.00 0.00 0.00 0.00 0.00 0.00 0.01 0.01 0.02 0.02 0.02 0.03 0.04 0.05 0.03
0.02 0.02 0.02 0.03 0.02 0.02 0.02 0.02 0.02 0.01 0.01 0.02 0.02 0.02 0.02 0.02 0.01 0.01 0.01 0.01 0.01 0.00 0.00 0.00 0.00 0.00 0.00 0.00 0.00 0.00 0.00 0.00 0.00 0.00 0.00 0.01 0.01 0.01 0.01 0.01 0.02 0.02 0.02
0.01 0.01 0.02 0.02 0.02 0.02 0.01 0.01 0.02 0.01 0.01 0.01 0.01 0.01 0.01 0.02 0.01 0.00 0.00 0.01 0.01 0.01 0.01 0.01 0.01 0.01 0.01 0.00 0.00 0.00 0.00 0.00 0.00 0.00 0.00 0.00 0.00 0.01 0.01 0.01 0.01 0.00 0.00
0.00 0.01 0.01 0.02 0.02 0.02 0.02 0.01 0.01 0.01 0.01 0.01 0.01 0.00 0.00 0.01 0.01 0.00 0.00 0.00 0.00 0.01 0.01 0.00 0.00 0.01 0.01 0.00 0.00 0.00 0.00 0.00 0.00 0.00 0.01 0.01 0.01 0.01 0.01 0.01 0.00 0.00 0.00
0.01 0.01 0.02 0.02 0.03 0.04 0.03 0.01 0.01 0.01 0.01 0.01 0.01 0.00 0.00 0.00 0.00 0.00 0.00 0.00 0.00 0.00 0.00 0.00 0.00 0.00 0.00 0.00 0.00 0.00 0.00 0.00 0.01 0.00 0.01 0.01 0.01 0.01 0.00 0.00 0.00 0.00 0.00
MSLP
1012.42 1012.43 1012.37 1012.26 1012.12 1011.98 1011.89 1011.88 1011.99 1012.21 1012.55 1012.96 1013.42 1013.87 1014.29 1014.64 1014.91 1015.12 1015.29 1015.45 1015.63 1015.86 1016.12 1016.42 1016.74 1017.03 1017.27 1017.45 1017.55 1017.59 1017.59 1017.59 1017.60 1017.64 1017.72 1017.83 1017.95 1018.05 1018.11 1018.11 1018.05 1017.95 1017.83
1012.84 1012.90 1012.87 1012.75 1012.56 1012.36 1012.18 1012.08 1012.11 1012.27 1012.55 1012.94 1013.37 1013.81 1014.19 1014.51 1014.74 1014.90 1015.03 1015.17 1015.35 1015.58 1015.88 1016.23 1016.58 1016.90 1017.17 1017.35 1017.45 1017.48 1017.48 1017.48 1017.51 1017.60 1017.75 1017.95 1018.16 1018.35 1018.49 1018.55 1018.54 1018.46 1018.33
1013.18 1013.27 1013.26 1013.15 1012.96 1012.72 1012.49 1012.34 1012.32 1012.44 1012.69 1013.05 1013.45 1013.85 1014.19 1014.45 1014.62 1014.73 1014.81 1014.91 1015.06 1015.29 1015.60 1015.97 1016.35 1016.70 1016.98 1017.18 1017.28 1017.32 1017.32 1017.34 1017.40 1017.55 1017.77 1018.05 1018.35 1018.63 1018.86 1019.00 1019.04 1019.00 1018.89
1013.44 1013.54 1013.54 1013.44 1013.25 1013.01 1012.77 1012.60 1012.56 1012.66 1012.89 1013.22 1013.59 1013.95 1014.24 1014.44 1014.54 1014.58 1014.60 1014.65 1014.77 1014.98 1015.29 1015.66 1016.06 1016.43 1016.73 1016.94 1017.06 1017.11 1017.13 1017.17 1017.27 1017.46 1017.74 1018.09 1018.47 1018.83 1019.13 1019.34 1019.45 1019.46 1019.38
1013.65 1013.71 1013.71 1013.61 1013.43 1013.20 1012.98 1012.82 1012.77 1012.86 1013.08 1013.39 1013.73 1014.04 1014.28 1014.43 1014.47 1014.45 1014.41 1014.40 1014.48 1014.67 1014.96 1015.33 1015.74 1016.12 1016.44 1016.67 1016.81 1016.88 1016.92 1016.99 1017.12 1017.34 1017.66 1018.05 1018.48 1018.89 1019.25 1019.52 1019.69 1019.75 1019.73
1013.84 1013.85 1013.81 1013.71 1013.53 1013.32 1013.11 1012.97 1012.93 1013.02 1013.23 1013.51 1013.82 1014.10 1014.30 1014.39 1014.39 1014.32 1014.23 1014.19 1014.24 1014.40 1014.67 1015.03 1015.44 1015.82 1016.15 1016.40 1016.56 1016.65 1016.72 1016.81 1016.96 1017.19 1017.52 1017.92 1018.36 1018.80 1019.18 1019.49 1019.70 1019.82 1019.85
1014.05 1013.98 1013.90 1013.78 1013.60 1013.40 1013.21 1013.09 1013.06 1013.15 1013.34 1013.61 1013.88 1014.13 1014.29 1014.35 1014.32 1014.22 1014.12 1014.06 1014.08 1014.23 1014.48 1014.83 1015.22 1015.60 1015.93 1016.19 1016.36 1016.47 1016.55 1016.65 1016.80 1017.03 1017.34 1017.72 1018.14 1018.56 1018.94 1019.26 1019.49 1019.65 1019.75
1014.33 1014.19 1014.06 1013.91 1013.73 1013.53 1013.35 1013.24 1013.21 1013.30 1013.47 1013.71 1013.96 1014.17 1014.31 1014.35 1014.31 1014.22 1014.12 1014.06 1014.08 1014.21 1014.45 1014.78 1015.14 1015.51 1015.83 1016.08 1016.26 1016.37 1016.46 1016.55 1016.69 1016.90 1017.17 1017.50 1017.87 1018.24 1018.59 1018.89 1019.13 1019.31 1019.46
1014.71 1014.52 1014.35 1014.18 1013.98 1013.79 1013.62 1013.51 1013.48 1013.55 1013.70 1013.90 1014.12 1014.31 1014.43 1014.48 1014.45 1014.37 1014.29 1014.25 1014.28 1014.41 1014.63 1014.93 1015.26 1015.60 1015.89 1016.12 1016.28 1016.39 1016.47 1016.55 1016.67 1016.83 1017.06 1017.33 1017.63 1017.94 1018.23 1018.49 1018.71 1018.91 1019.08
1015.22 1015.01 1014.82 1014.64 1014.44 1014.25 1014.09 1013.97 1013.94 1013.98 1014.10 1014.27 1014.45 1014.62 1014.73 1014.78 1014.77 1014.73 1014.68 1014.67 1014.72 1014.85 1015.05 1015.32 1015.61 1015.89 1016.14 1016.33 1016.46 1016.55 1016.61 1016.67 1016.76 1016.89 1017.07 1017.28 1017.51 1017.74 1017.96 1018.17 1018.36 1018.54 1018.72
1015.88 1015.68 1015.50 1015.32 1015.14 1014.96 1014.80 1014.69 1014.64 1014.66 1014.75 1014.88 1015.02 1015.15 1015.25 1015.31 1015.32 1015.31 1015.30 1015.32 1015.39 1015.52 1015.70 1015.93 1016.16 1016.38 1016.57 1016.71 1016.80 1016.86 1016.90 1016.94 1017.01 1017.11 1017.24 1017.39 1017.56 1017.72 1017.88 1018.02 1018.16 1018.30 1018.47
1016.66 1016.51 1016.36 1016.21 1016.05 1015.89 1015.75 1015.64 1015.58 1015.58 1015.63 1015.72 1015.82 1015.91 1015.99 1016.03 1016.06 1016.08 1016.10 1016.15 1016.24 1016.36 1016.52 1016.70 1016.88 1017.03 1017.15 1017.23 1017.28 1017.30 1017.31 1017.34 1017.39 1017.46 1017.56 1017.68 1017.79 1017.89 1017.98 1018.06 1018.14 1018.23 1018.36
1017.54 1017.44 1017.34 1017.22 1017.10 1016.97 1016.85 1016.75 1016.70 1016.67 1016.69 1016.72 1016.77 1016.83 1016.87 1016.90 1016.93 1016.96 1017.00 1017.07 1017.17 1017.29 1017.43 1017.57 1017.68 1017.77 1017.83 1017.85 1017.84 1017.83 1017.82 1017.83 1017.87 1017.93 1018.01 1018.09 1018.17 1018.22 1018.25 1018.27 1018.28 1018.31 1018.38
1018.46 1018.42 1018.36 1018.28 1018.19 1018.09 1018.00 1017.92 1017.86 1017.83 1017.81 1017.80 1017.80 1017.80 1017.80 1017.80 1017.82 1017.85 1017.91 1017.99 1018.10 1018.22 1018.34 1018.44 1018.51 1018.54 1018.54 1018.50 1018.45 1018.40 1018.37 1018.37 1018.40 1018.45 1018.52 1018.58 1018.62 1018.63 1018.60 1018.55 1018.49 1018.45 1018.45
1019.36 1019.37 1019.34 1019.29 1019.22 1019.15 1019.08 1019.02 1018.97 1018.92 1018.87 1018.82 1018.77 1018.72 1018.67 1018.64 1018.63 1018.66 1018.72 1018.82 1018.93 1019.05 1019.16 1019.24 1019.28 1019.27 1019.22 1019.14 1019.06 1018.98 1018.92 1018.91 1018.92 1018.96 1019.01 1019.05 1019.05 1019.01 1018.93 1018.82 1018.70 1018.59 1018.52
1020.20 1020.22 1020.20 1020.16 1020.11 1020.05 1020.00 1019.95 1019.90 1019.85 1019.78 1019.69 1019.60 1019.50 1019.41 1019.34 1019.31 1019.33 1019.39 1019.49 1019.62 1019.75 1019.86 1019.93 1019.95 1019.92 1019.84 1019.74 1019.62 1019.51 1019.44 1019.40 1019.39 1019.41 1019.43 1019.43 1019.39 1019.31 1019.18 1019.00 1018.82 1018.64 1018.51
1020.94 1020.94 1020.91 1020.85 1020.79 1020.74 1020.70 1020.66 1020.61 1020.55 1020.47 1020.36 1020.23 1020.09 1019.96 1019.87 1019.82 1019.83 1019.90 1020.01 1020.15 1020.30 1020.42 1020.50 1020.52 1020.48 1020.39 1020.26 1020.12 1019.99 1019.89 1019.82 1019.78 1019.76 1019.74 1019.70 1019.61 1019.48 1019.29 1019.07 1018.83 1018.60 1018.42
1021.55 1021.51 1021.44 1021.35 1021.27 1021.21 1021.16 1021.13 1021.09 1021.02 1020.93 1020.81 1020.66 1020.50 1020.36 1020.25 1020.19 1020.20 1020.28 1020.40 1020.57 1020.73 1020.87 1020.96 1020.99 1020.95 1020.85 1020.71 1020.55 1020.40 1020.26 1020.16 1020.08 1020.02 1019.95 1019.86 1019.72 1019.54 1019.30 1019.03 1018.75 1018.49 1018.29
1022.03 1021.94 1021.81 1021.68 1021.58 1021.50 1021.44 1021.41 1021.37 1021.31 1021.23 1021.11 1020.96 1020.80 1020.65 1020.54 1020.49 1020.51 1020.59 1020.74 1020.91 1021.09 1021.25 1021.35 1021.39 1021.35 1021.25 1021.10 1020.93 1020.75 1020.58 1020.44 1020.32 1020.21 1020.09 1019.94 1019.76 1019.54 1019.27 1018.97 1018.67 1018.40 1018.18
1022.39 1022.24 1022.07 1021.90 1021.77 1021.67 1021.61 1021.57 1021.54 1021.49 1021.42 1021.32 1021.19 1021.05 1020.92 1020.82 1020.79 1020.82 1020.91 1021.06 1021.25 1021.43 1021.59 1021.70 1021.73 1021.70 1021.59 1021.43 1021.24 1021.04 1020.85 1020.67 1020.51 1020.36 1020.20 1020.02 1019.80 1019.55 1019.26 1018.96 1018.66 1018.40 1018.20
1022.63 1022.44 1022.24 1022.05 1021.90 1021.79 1021.72 1021.68 1021.66 1021.64 1021.59 1021.51 1021.42 1021.31 1021.21 1021.15 1021.13 1021.18 1021.28 1021.43 1021.60 1021.78 1021.93 1022.02 1022.04 1021.99 1021.88 1021.71 1021.51 1021.29 1021.08 1020.87 1020.69 1020.51 1020.32 1020.12 1019.89 1019.63 1019.35 1019.06 1018.78 1018.55 1018.37
1022.75 1022.56 1022.35 1022.16 1022.00 1021.88 1021.82 1021.80 1021.79 1021.79 1021.77 1021.73 1021.68 1021.62 1021.56 1021.53 1021.54 1021.59 1021.70 1021.84 1021.99 1022.14 1022.25 1022.31 1022.31 1022.24 1022.10 1021.92 1021.71 1021.48 1021.26 1021.04 1020.84 1020.65 1020.46 1020.26 1020.04 1019.80 1019.54 1019.29 1019.05 1018.85 1018.71
1022.77 1022.60 1022.41 1022.23 1022.08 1021.98 1021.93 1021.92 1021.93 1021.95 1021.97 1021.98 1021.97 1021.96 1021.95 1021.95 1021.98 1022.05 1022.14 1022.26 1022.37 1022.48 1022.55 1022.56 1022.52 1022.42 1022.26 1022.06 1021.84 1021.61 1021.39 1021.17 1020.98 1020.79 1020.61 1020.43 1020.23 1020.02 1019.81 1019.60 1019.42 1019.26 1019.16
1022.69 1022.57 1022.42 1022.27 1022.15 1022.07 1022.04 1022.04 1022.07 1022.12 1022.17 1022.22 1022.26 1022.29 1022.33 1022.37 1022.42 1022.48 1022.56 1022.64 1022.72 1022.77 1022.78 1022.74 1022.66 1022.52 1022.34 1022.13 1021.90 1021.67 1021.46 1021.26 1021.08 1020.91 1020.75 1020.59 1020.43 1020.26 1020.10 1019.94 1019.80 1019.69 1019.62
1022.53 1022.46 1022.37 1022.27 1022.19 1022.14 1022.12 1022.14 1022.19 1022.26 1022.34 1022.42 1022.50 1022.57 1022.64 1022.71 1022.77 1022.84 1022.90 1022.94 1022.97 1022.96 1022.92 1022.84 1022.71 1022.54 1022.34 1022.12 1021.90 1021.68 1021.48 1021.29 1021.13 1020.98 1020.84 1020.70 1020.57 1020.44 1020.31 1020.20 1020.10 1020.03 1019.98
1022.31 1022.31 1022.28 1022.24 1022.20 1022.17 1022.17 1022.20 1022.26 1022.34 1022.44 1022.54 1022.65 1022.75 1022.85 1022.93 1023.00 1023.06 1023.10 1023.11 1023.10 1023.05 1022.96 1022.84 1022.68 1022.49 1022.28 1022.06 1021.85 1021.64 1021.45 1021.28 1021.12 1020.98 1020.85 1020.73 1020.61 1020.50 1020.39 1020.31 1020.24 1020.19 1020.16
Thickness
5720 5720 5719 5717 5715 5713 5711 5708 5705 5702 5699 5695 5691 5687 5683 5681 5680 5679 5678 5677 5676 5674 5673 5672 5671 5671 5669 5668 5668 5667 5666 5665 5666 5664 5662 5663 5665 5665 5666 5666 5666 5666 5666
5714 5714 5714 5712 5710 5707 5705 5702 5700 5697 5694 5691 5687 5683 5679 5676 5674 5672 5670 5669 5668 5667 5666 5664 5663 5662 5661 5659 5659 5658 5657 5656 5657 5654 5651 5649 5651 5654 5656 5656 5657 5656 5658
5713 5710 5708 5706 5705 5702 5698 5696 5693 5691 5688 5685 5681 5677 5672 5669 5665 5663 5662 5661 5660 5659 5658 5656 5655 5654 5652 5650 5650 5649 5648 5646 5647 5647 5644 5639 5638 5639 5643 5645 5647 5647 5648
5713 5708 5705 5701 5699 5697 5694 5690 5686 5684 5681 5678 5674 5669 5664 5659 5657 5654 5653 5652 5651 5651 5650 5648 5647 5646 5645 5643 5642 5642 5640 5639 5637 5638 5638 5636 5634 5630 5630 5633 5635 5637 5639
5710 5705 5701 5697 5695 5692 5688 5684 5680 5677 5674 5671 5667 5662 5657 5654 5650 5647 5645 5643 5642 5641 5640 5640 5638 5638 5636 5635 5634 5634 5633 5632 5631 5630 5629 5628 5626 5625 5622 5621 5623 5626 5628
5706 5702 5698 5693 5688 5685 5681 5677 5673 5669 5667 5664 5660 5656 5651 5647 5643 5639 5635 5633 5632 5632 5631 5631 5630 5629 5628 5627 5627 5626 5626 5625 5624 5623 5622 5620 5618 5617 5615 5613 5614 5615 5618
5702 5697 5692 5687 5683 5680 5675 5671 5667 5662 5660 5656 5652 5648 5644 5640 5635 5631 5627 5624 5623 5622 5621 5622 5621 5621 5620 5620 5620 5619 5618 5618 5617 5616 5615 5614 5612 5612 5610 5607 5606 5606 5607
5698 5694 5689 5683 5679 5676 5671 5666 5660 5655 5652 5649 5644 5641 5636 5632 5627 5624 5620 5617 5615 5614 5613 5613 5613 5613 5613 5612 5612 5611 5611 5610 5609 5609 5608 5606 5606 5605 5603 5601 5599 5597 5597
5691 5688 5683 5678 5674 5670 5666 5660 5655 5649 5645 5641 5637 5633 5628 5624 5620 5616 5614 5611 5609 5607 5606 5605 5604 5604 5604 5604 5604 5603 5602 5602 5601 5600 5600 5599 5598 5597 5596 5595 5594 5591 5589
5684 5680 5676 5672 5668 5664 5659 5655 5650 5644 5639 5635 5630 5625 5621 5617 5613 5610 5606 5604 5602 5601 5599 5598 5597 5596 5596 5595 5595 5594 5594 5593 5593 5592 5591 5591 5589 5588 5588 5587 5587 5586 5584
5678 5673 5669 5665 5662 5657 5653 5648 5644 5639 5633 5628 5623 5618 5614 5610 5606 5603 5600 5598 5596 5594 5593 5591 5590 5589 5588 5587 5586 5586 5586 5585 5584 5584 5583 5582 5581 5580 5579 5579 5579 5578 5578
5671 5667 5663 5658 5654 5649 5646 5642 5638 5632 5627 5622 5616 5611 5607 5603 5599 5596 5594 5592 5590 5588 5587 5585 5584 5582 5581 5580 5579 5579 5578 5577 5576 5576 5575 5574 5574 5572 5572 5571 5571 5571 5572
5664 5659 5654 5650 5646 5642 5638 5635 5631 5627 5621 5616 5610 5606 5601 5597 5594 5591 5588 5587 5585 5583 5581 5580 5577 5576 5575 5574 5573 5572 5571 5570 5570 5569 5568 5567 5566 5565 5564 5564 5564 5564 5565
5655 5651 5647 5643 5640 5636 5632 5628 5624 5620 5615 5610 5605 5600 5596 5593 5590 5587 5584 5582 5580 5577 5575 5574 5572 5570 5569 5568 5567 5566 5565 5565 5564 5563 5563 5562 5561 5559 5559 5559 5559 5559 5558
5648 5645 5641 5637 5634 5629 5626 5623 5618 5614 5609 5604 5599 5595 5592 5589 5586 5583 5580 5577 5575 5573 5571 5569 5567 5566 5565 5564 5563 5562 5561 5560 5559 5558 5558 5557 5557 5556 5556 5555 5554 5554 5553
5644 5639 5637 5633 5629 5625 5621 5617 5613 5609 5604 5599 5595 5592 5588 5585 5582 5579 5576 5573 5571 5569 5567 5565 5563 5562 5562 5561 5560 5559 5557 5556 5555 5554 5553 5553 5552 5552 5552 5552 5552 5551 5550
5641 5635 5632 5629 5626 5622 5618 5613 5609 5604 5599 5595 5592 5589 5585 5582 5579 5577 5573 5570 5567 5565 5563 5562 5561 5560 5559 5559 5558 5557 5555 5553 5551 5550 5550 5550 5549 5549 5548 5549 5549 5549 5549
5639 5634 5628 5625 5622 5618 5614 5610 5605 5601 5597 5593 5589 5586 5582 5579 5576 5573 5570 5567 5565 5563 5561 5560 5559 5558 5558 5557 5556 5555 5553 5551 5550 5549 5548 5547 5546 5546 5545 5545 5546 5547 5548
5636 5631 5626 5622 5618 5614 5611 5606 5601 5598 5594 5590 5587 5584 5581 5577 5574 5571 5568 5566 5564 5562 5561 5560 5558 5557 5556 5556 5554 5553 5551 5550 5549 5548 5547 5547 5546 5545 5544 5544 5544 5545 5547
5632 5626 5622 5618 5613 5610 5607 5602 5598 5594 5591 5589 5586 5583 5580 5576 5573 5570 5568 5566 5563 5561 5561 5559 5558 5557 5556 5556 5555 5553 5551 5549 5548 5547 5547 5546 5545 5545 5545 5544 5543 5543 5545
5628 5623 5618 5613 5610 5607 5604 5599 5595 5592 5590 5588 5585 5582 5579 5576 5573 5570 5568 5566 5564 5561 5560 5559 5558 5558 5557 5556 5556 5554 5552 5549 5548 5547 5547 5547 5547 5546 5546 5546 5545 5545 5546
5622 5618 5614 5609 5607 5604 5601 5596 5593 5591 5589 5586 5583 5580 5578 5576 5574 5570 5568 5566 5563 5561 5559 5558 5558 5558 5558 5557 5557 5556 5554 5552 5549 5548 5548 5548 5548 5548 5548 5548 5548 5549 5548
5618 5615 5610 5606 5603 5601 5599 5594 5592 5591 5587 5584 5581 5579 5577 5575 5573 5570 5568 5566 5563 5561 5560 5558 5558 5558 5559 5558 5558 5558 5556 5555 5552 5551 5551 5551 5551 5550 5550 5551 5551 5551 5550
5615 5611 5607 5603 5600 5598 5597 5594 5592 5589 5586 5583 5580 5578 5576 5574 5573 5571 5569 5566 5564 5562 5562 5561 5559 5559 5559 5560 5559 5559 5558 5557 5555 5554 5554 5554 5554 5554 5554 5554 5554 5554 5554
5612 5609 5606 5602 5599 5597 5595 5593 5591 5588 5585 5582 5580 5578 5576 5574 5572 5571 5570 5569 5568 5567 5565 5564 5563 5561 5561 5563 5563 5560 5559 5558 5558 5557 5556 5556 5556 5556 5556 5557 5557 5558 5557
5610 5607 5604 5602 5599 5597 5595 5593 5591 5588 5585 5582 5580 5578 5576 5574 5573 5572 5571 5573 5572 5572 5572 5570 5569 5568 5568 5568 5567 5565 5564 5563 5561 5559 5558 5558 5558 5558 5559 5559 5560 5561 5561